sat.trackr.live / text

‹ back to catalog

STARLINK-1114

NORAD 44927 · 2020-001P

PAYLOAD ACTIVE UNKNOWN

§ Identity

Operator
Country
US
Launch date
2020-01-07
Launch site
AFETR
Launch vehicle
Mass (kg)
RCS (m²)

Purposes: comms

External: N2YO · Heavens-Above · Gunter

§ Orbital elements

Epoch: 2026-09-20T02:34:58.715328Z

Period
90.93 min
Inclination
53.0343°
Eccentricity
0.0003379
Mean motion
15.83706738 rev/d
Perigee alt
317.7 km
Apogee alt
322.2 km
Semi-major
6,698.1 km
B*
4.3015e-4
RAAN
91.7861°
Arg perigee
157.7411°
Mean anomaly
202.3759°
Rev number
37,058

§ Raw data

STARLINK-11141 44927U 20001P   26263.10762402  .00097328  00000+0  43015-3 0  99942 44927  53.0343  91.7861 0003379 157.7411 202.3759 15.83706738370585

JSON: /api/v1/satellites/44927 · /tle

For live sub-satellite position, see the globe view (requires WebGL).

§ Visibility from observer

Set your observer location to see the next 7 days of passes ≥ 10°. The values pass through the URL so the page stays shareable.

No JS? Fill the form by hand. The geolocation button needs JavaScript.